Regional Weather Roundup
Issued by NWS

Home | Current Version | Previous Version | Text Only | Print | Product List | Glossary On
Versions: 1 2 3 4 5 6 7 8 9 10 11 12 13 14 15 16 17 18 19 20 21 22 23 24 25 26 27 28 29 30 31 32 33 34 35 36 37 38 39 40 41 42 43 44 45 46 47 48 49 50
000
ASUS43 KDTX 250410
RWRMI
MICHIGAN HOURLY REGIONAL WEATHER ROUNDUP
NATIONAL WEATHER SERVICE DETROIT/PONTIAC MI
1100 PM EST SAT FEB 24 2018

NOTE: "FAIR" INDICATES FEW OR NO CLOUDS BELOW 12,000 FEET WITH NO
SIGNIFICANT WEATHER AND/OR OBSTRUCTION TO VISIBILITY.

MIZ047>049-052>055-059>063-066>070-074>076-081>083-250500-
SOUTHEAST LOWER MICHIGAN

CITY           SKY/WX    TMP DP  RH WIND       PRES   REMARKS
ADRIAN         LGT RAIN  35  34  96 SE22      29.76F WCI  23
ALMA           CLOUDY    34  32  92 E12       29.77F WCI  26
ANN ARBOR      MIX PCPN  36  35  96 E15       29.80F WCI  27
BAD AXE        MOCLDY    33  31  92 E9G18     29.88F WCI  25
CARO           CLOUDY    34  31  89 E15G25    29.82F WCI  24
DETROIT CITY   LGT RAIN  35  32  88 E15G22    29.88F WCI  25
DETROIT        LGT RAIN  37  34  89 E12       29.86F WCI  29
FLINT          CLOUDY    36  32  85 SE16      29.80F WCI  26
GROSSE ILE     MIX PCPN  36  34  92 E9G16     29.86F WCI  29
HILLSDALE      CLOUDY    36  34  93 E20G26    29.71F FOG     WCI  25
HOWELL         LGT RAIN  36  35  94 SE21G30   29.76F WCI  25

CITY           SKY/WX    TMP DP  RH WIND       PRES   REMARKS
JACKSON        CLOUDY    36  35  96 E15G24    29.73F WCI  27
LAMBERTVILLE   RAIN      35  33  94 E10G16    29.83F WCI  27
LANSING        CLOUDY    37  33  85 E15       29.73F WCI  28
LAPEER         CLOUDY    34  32  91 SE8G17    29.83F WCI  28
MASON          CLOUDY    38  33  81 E15G21    29.73F WCI  29
MONROE         LGT RAIN  34  32  93 E14G20    29.85F WCI  25
MT. CLEMENS    LGT RAIN  36  36 100 E9        29.87F WCI  29
PONTIAC        LGT RAIN  35  34  96 SE15G30   29.80F WCI  25
PORT HOPE        N/A     34  31  88 E21       29.89F WCI  22
PORT HURON     CLOUDY    36  32  87 E12       29.90F WCI  27
TRI CITIES     CLOUDY    33  29  85 E14       29.82F WCI  23
MIDLAND        CLOUDY    32  29  89 E10G16    29.82F WCI  24
TROY           LGT RAIN  36  33  91 E12       29.88F WCI  28
SAGINAW HB     CLOUDY    34  32  93 E15       29.81F WCI  24
$$
MIZ043>046-050>051-056>058-064>065-071>073-077>080-250500-
SOUTHWEST LOWER MICHIGAN

CITY           SKY/WX    TMP DP  RH WIND       PRES   REMARKS
BATTLE CREEK   CLOUDY    38  35  89 E10G21    29.67F WCI  31
BENTON HARBOR  CLOUDY    42  37  82 SE18G30   29.58F
BIG RAPIDS     CLOUDY    32  28  83 E15G23    29.72F WCI  22
COLDWATER      CLOUDY    38  38 100 SE18G25   29.68F WCI  29
FREMONT        CLOUDY    35  28  75 E18G26    29.67F WCI  25
HOLLAND        CLOUDY    40  35  83 E20G28    29.63F WCI  30
GRAND RAPIDS   CLOUDY    38  33  82 E21G26    29.67F WCI  28
IONIA          CLOUDY    37  33  84 E15G22    29.70F WCI  28
KALAMAZOO      CLOUDY    40  36  86 SE14G22   29.65F WCI  32
LUDINGTON      CLOUDY    34  31  90 E17G23    29.64F WCI  23
MARSHALL       CLOUDY    37  36  99 E14G23    29.66F WCI  28
MOUNT PLEASANT CLOUDY    33  28  81 E13G20    29.78F WCI  24
MUSKEGON       LGT RAIN  38  32  79 E20G26    29.64F WCI  28
SOUTH HAVEN    CLOUDY    42  37  84 SE17G24   29.61F
$$
MIZ016>042-250500-
NORTHERN LOWER MICHIGAN

CITY           SKY/WX    TMP DP  RH WIND       PRES   REMARKS
ALPENA         MOCLDY    32  28  85 E16G23    29.90F WCI  21
BEAVER ISLAND  FAIR      32  24  73 E16G22    29.76F WCI  21
BELLAIRE       CLOUDY    33  27  81 SE10G20   29.78F WCI  24
CADILLAC       CLOUDY    29  28  95 E24G31    29.70F WCI  15
CHARLEVOIX     CLOUDY    32  25  73 E21G26    29.79F WCI  20
FRANKFORT      MIX PCPN  34  30  85 E15G25    29.64F WCI  24
GAYLORD        CLOUDY    29  26  89 SE17      29.79F WCI  17
GRAYLING       CLOUDY    30  26  84 E16G23    29.78F WCI  19
HARBOR SPRINGS CLOUDY    31  25  80 E15G22    29.81F WCI  20
HOUGHTON LAKE  CLOUDY    30  26  85 E18       29.80F WCI  18
MANISTEE       MIX PCPN  33  29  85 E18G28    29.64F WCI  22
OSCODA         MOCLDY    32  29  86 E9        29.89F WCI  25
PELLSTON       CLOUDY    31  25  78 E17G24    29.83F WCI  19
ROGERS CITY    CLOUDY    32  27  83 E14G26    29.90F WCI  22
TRAVERSE CITY  CLOUDY    34  26  72 SE15G22   29.73F WCI  24
$$
MIZ007>008-015-250500-
EASTERN UPPER MICHIGAN

CITY           SKY/WX    TMP DP  RH WIND       PRES   REMARKS
KINROSS        CLOUDY    29  24  82 E18G32    29.88F WCI  16
MACKINAC ISLAN CLOUDY    31  25  78 E21G36    29.85F WCI  18
NEWBERRY       MOCLDY    29  25  84 E21       29.80F WCI  15
S. S. MARIE    CLOUDY    31  24  75 SE13G28   29.90F WCI  21
MUNISING         N/A     31  24  75 SE8G25    29.72F WCI  23
$$
MIZ004>006-011>014-085-250500-
CENTRAL UPPER MICHIGAN

CITY           SKY/WX    TMP DP  RH WIND       PRES   REMARKS
MANISTIQUE     MOCLDY    30  26  86 E21G30    29.75F WCI  17
ESCANABA       FLURRIES  32  26  78 E26G33    29.67F WCI  18
MENOMINEE      LGT SNOW  33  30  88 E17       29.62F FOG     WCI  22
SAWYER-GWINN   CLOUDY    30  22  72 E16G28    29.65F WCI  18
$$
MIZ001>003-009>011-084-250500-
WESTERN UPPER MICHIGAN

CITY           SKY/WX    TMP DP  RH WIND       PRES   REMARKS
IRON MOUNTAIN  LGT SNOW  29  26  89 E13G21    29.55F VSB 1   WCI  19
HOUGHTON       FLURRIES  30  22  72 E21G36    29.61F WCI  17
COPPER HARBOR    N/A     32  24  72 S12G22    29.69F WCI  23
IRONWOOD       SNOW      28  27  93 S7        29.52S VSB 1/2 WCI  21
$$

ABBREVIATIONS USED IN REMARKS
   TC - TEMPERATURE IN CELSIUS
  WCI - WIND CHILL INDEX
   HX - HEAT INDEX
  VSB - VISIBILITY





USA.gov is the U.S. government's official web portal to all federal, state and local government web resources and services.